Location: Cornospital
(48.0620°N, 3.3837°W)
Time: 16:18:35
(UTC+00:00)

Meteor 1-16 Rocket - Pass Details

Date: 17 June 2021
Orbit: 790 x 908 km, 81.2° (Epoch: 31 July)

Event Time Altitude Azimuth Distance (km) Brightness Sun altitude
Rises 21:35:57 0° 347° (NNW) 3,399 8.7 -10.2°
Reaches altitude 10° 21:38:24 10° 346° (NNW) 2,443 7.8 -10.4°
Maximum altitude 21:43:54 76° 262° (W) 840 4.3 -10.9°
Enters shadow 21:49:07 11° 177° (S) 2,323 6.0 -11.4°
